Location: Ihr�?
(48.6546°N, 18.9528°E)
Time: 23:44:37
(UTC+00:00)

Daily predictions for brighter satellites

Satellite Brightness Start Highest point End
(mag) Time Altitude Azimuth Time Altitude Azimuth Time Altitude Azimuth
CENTAUR R/B 3.5 19:06:26 10° NW 19:14:14 64° NE 19:22:53 10° ESE
STARLINK-1218 4.5 19:16:42 10° WNW 19:20:45 50° N 19:24:48 10° E
Cosmos 2278 Rocket 4.5 19:17:22 10° WSW 19:22:22 31° NW 19:27:25 10° NNE
ATLAS 3B R/B 3.7 19:16:10 10° NW 19:22:29 40° NNE 19:28:58 10° ESE
Cosmos 1066 Rocket 4.1 19:17:43 10° S 19:23:03 71° E 19:28:24 10° NNE
Spot 2 Rocket 3.7 19:18:32 10° SSE 19:23:29 61° ENE 19:28:29 10° N
Cosmos 1110 Rocket 4.0 19:18:35 10° SSW 19:23:46 86° ESE 19:28:59 10° NNE
SPOT 5 4.2 19:19:34 10° SE 19:24:14 32° ENE 19:28:58 10° N
USA 215 4.5 19:18:06 10° ENE 19:24:14 44° N 19:30:21 10° WNW
Meteor 1-23 Rocket 4.2 19:18:41 10° S 19:24:20 76° E 19:29:57 10° NNE
STARLINK-52 3.9 19:22:16 10° SSW 19:25:04 28° SE 19:27:52 10° E
STARLINK-1254 4.4 19:21:42 10° WNW 19:25:46 51° NNE 19:29:49 10° E
Cosmos 304 Rocket 4.3 19:22:09 10° SSW 19:26:54 65° WNW 19:31:42 10° NNE
NOSS 2-2 (D) 3.3 19:23:53 10° SW 19:27:28 84° NW 19:31:34 10° NE
Terra 3.3 19:24:45 10° ESE 19:28:32 24° ENE 19:32:20 10° N
Cosmos 1378 3.4 19:25:14 10° S 19:28:49 50° E 19:32:25 10° NNE
EXPRESS MD2 3.2 19:27:17 10° WSW 19:30:12 78° SSE 19:35:38 10° ENE
STARLINK-1231 4.4 19:26:41 10° WNW 19:30:45 52° NNE 19:34:49 10° E
Cosmos 1378 Rocket 3.6 19:28:15 10° S 19:32:38 88° W 19:37:02 10° N
Cosmos 1674 Rocket 4.0 19:28:38 10° SSW 19:33:01 68° WNW 19:37:28 10° N
Cosmos 1331 Rocket 4.1 19:30:27 10° SSW 19:35:37 84° WNW 19:40:52 10° NNE
STARLINK-1232 4.3 19:31:42 10° WNW 19:35:47 54° NNE 19:39:51 10° E
NOSS 3-2 (C) 4.1 19:30:05 10° NW 19:37:32 84° NE 19:45:59 10° SE
Cosmos 1805 3.2 19:34:42 10° N 19:38:39 77° E 19:42:34 10° SSE
SAR-Lupe-2 4.0 19:36:02 10° NNE 19:39:31 44° E 19:42:57 10° S
STARLINK-1208 4.2 19:36:41 10° WNW 19:40:46 56° NNE 19:44:51 10° E
Meteor 1-22 Rocket 4.3 19:36:30 10° N 19:42:20 69° ENE 19:47:53 10° SSE
NOSS 2-2 (E) 4.3 19:40:09 10° WSW 19:43:41 51° NW 19:47:50 10° NE
Cosmos 1470 4.1 19:41:27 10° NNE 19:44:43 25° ENE 19:47:46 11° SE
STARLINK-1271 4.2 19:41:40 10° WNW 19:45:46 58° NNE 19:49:51 10° E
COSMOS 2455 3.9 19:41:43 10° SSE 19:46:23 24° ESE 19:51:04 10° NE
STARLINK-1444 1.8 19:45:04 10° SW 19:47:08 60° SSE 19:49:15 10° ENE
STARLINK-1452 1.7 19:45:43 10° SW 19:47:46 61° SSE 19:49:51 10° ENE
NOSS 3-4 (A) 3.9 19:42:36 10° S 19:47:57 36° ESE 19:53:34 10° NE
NOSS 3-4 (C) 4.0 19:42:43 10° S 19:48:03 36° ESE 19:53:40 10° NE
STARLINK-1392 1.7 19:46:41 10° SW 19:48:42 62° SSE 19:50:44 10° ENE
STARLINK-1399 1.7 19:46:42 10° SW 19:48:43 62° SSE 19:50:46 10° ENE
STARLINK-1393 1.7 19:46:44 10° SW 19:48:45 62° SSE 19:50:47 10° ENE
STARLINK-1394 1.7 19:46:45 10° SW 19:48:46 62° SSE 19:50:49 10° ENE
STARLINK-1397 1.7 19:46:47 10° SW 19:48:48 62° SSE 19:50:52 10° ENE
STARLINK-1395 1.6 19:46:49 10° SW 19:48:49 62° SSE 19:50:49 10° ENE
STARLINK-1396 1.7 19:46:48 10° SW 19:48:49 62° SSE 19:50:52 10° ENE
STARLINK-1414 1.7 19:46:49 10° SW 19:48:49 62° SSE 19:50:51 10° ENE
STARLINK-1408 1.7 19:46:52 10° SW 19:48:53 62° SSE 19:50:54 10° ENE
STARLINK-1404 1.7 19:46:52 10° SW 19:48:53 62° SSE 19:50:56 10° ENE
STARLINK-1416 1.7 19:46:53 10° SW 19:48:54 62° SSE 19:50:56 10° ENE
STARLINK-1415 1.7 19:46:52 10° SW 19:48:54 63° SSE 19:50:58 10° ENE
STARLINK-1450 1.7 19:46:53 10° SW 19:48:55 63° SSE 19:50:58 10° ENE
STARLINK-1401 1.7 19:46:56 10° SW 19:48:57 63° SSE 19:51:01 10° ENE
STARLINK-1406 1.6 19:46:58 10° SW 19:48:58 62° SSE 19:50:59 10° ENE
STARLINK-1417 1.7 19:46:59 10° SW 19:49:00 63° SSE 19:51:04 10° ENE
STARLINK-1402 1.7 19:47:00 10° SW 19:49:01 63° SSE 19:51:05 10° ENE
STARLINK-1419 1.7 19:47:01 10° SW 19:49:01 63° SSE 19:51:05 10° ENE
STARLINK-1413 1.7 19:47:00 10° SW 19:49:02 63° SSE 19:51:05 10° ENE
STARLINK-1422 1.7 19:47:06 10° SW 19:49:07 63° SSE 19:51:10 10° ENE
STARLINK-1398 1.7 19:47:05 10° SW 19:49:08 63° SSE 19:51:13 10° ENE
STARLINK-1453 1.7 19:47:05 10° SW 19:49:08 63° SSE 19:51:12 10° ENE
STARLINK-1440 1.7 19:47:07 10° SW 19:49:08 63° SSE 19:51:12 10° ENE
STARLINK-1436 (VISORSAT) 1.7 19:47:07 10° SW 19:49:10 63° SSE 19:51:15 10° ENE
STARLINK-1420 1.7 19:47:08 10° SW 19:49:11 63° SSE 19:51:14 10° ENE
STARLINK-1460 1.7 19:47:11 10° SW 19:49:13 63° SSE 19:51:17 10° ENE
Cosmos 1733 3.2 19:45:25 10° N 19:49:13 68° E 19:52:52 11° SSE
STARLINK-1410 1.7 19:47:16 10° SW 19:49:18 63° SSE 19:51:21 10° ENE
STARLINK-1423 1.7 19:47:17 10° SW 19:49:18 63° SSE 19:51:21 10° ENE
STARLINK-1421 1.7 19:47:17 10° SW 19:49:18 63° SSE 19:51:21 10° ENE
STARLINK-1400 1.7 19:47:16 10° SW 19:49:18 63° SSE 19:51:22 10° ENE
STARLINK-1454 1.7 19:47:16 10° SW 19:49:18 63° SSE 19:51:22 10° ENE
STARLINK-1458 1.7 19:47:19 10° SW 19:49:20 63° SSE 19:51:23 10° ENE
STARLINK-1445 1.7 19:47:20 10° SW 19:49:22 64° SSE 19:51:27 10° ENE
STARLINK-1446 1.7 19:47:23 10° SW 19:49:25 64° SSE 19:51:29 10° ENE
STARLINK-1407 1.7 19:47:24 10° SW 19:49:25 64° SSE 19:51:29 10° ENE
STARLINK-1405 1.6 19:47:27 10° SW 19:49:27 63° SSE 19:51:28 10° ENE
STARLINK-1370 1.7 19:47:25 10° SW 19:49:28 64° SSE 19:51:32 10° ENE
STARLINK-1457 1.7 19:47:26 10° SW 19:49:28 64° SSE 19:51:31 10° ENE
STARLINK-1456 1.7 19:47:26 10° SW 19:49:28 64° SSE 19:51:31 10° ENE
STARLINK-1437 1.7 19:47:27 10° SW 19:49:28 64° SSE 19:51:33 10° ENE
STARLINK-1451 1.7 19:47:26 10° SW 19:49:29 64° SSE 19:51:31 10° ENE
STARLINK-1455 1.7 19:47:27 10° SW 19:49:29 64° SSE 19:51:33 10° ENE
STARLINK-1409 1.7 19:47:27 10° SW 19:49:29 64° SSE 19:51:33 10° ENE
STARLINK-1447 1.7 19:47:27 10° SW 19:49:29 64° SSE 19:51:33 10° ENE
STARLINK-1439 1.6 19:47:30 10° SW 19:49:29 63° SSE 19:51:31 10° ENE
STARLINK-1441 1.7 19:47:29 10° SW 19:49:32 64° SSE 19:51:36 10° ENE
STARLINK-1443 1.7 19:47:31 10° SW 19:49:33 64° SSE 19:51:38 10° ENE
STARLINK-1351 1.7 19:47:34 10° SW 19:49:36 64° SSE 19:51:40 10° ENE
STARLINK-1418 1.7 19:47:34 10° SW 19:49:36 64° SSE 19:51:40 10° ENE
STARLINK-1442 1.7 19:47:34 10° SW 19:49:37 64° SSE 19:51:40 10° ENE
STARLINK-1434 1.7 19:47:34 10° SW 19:49:37 64° SSE 19:51:41 10° ENE
STARLINK-1403 1.7 19:47:34 10° SW 19:49:37 64° SSE 19:51:41 10° ENE
STARLINK-1448 1.7 19:47:36 10° SW 19:49:38 64° SSE 19:51:42 10° ENE
CZ-2C R/B 4.0 19:44:18 10° N 19:49:39 45° WNW 19:54:56 10° SW
STARLINK-1433 1.7 19:47:37 10° SW 19:49:40 64° SSE 19:51:44 10° ENE
STARLINK-1449 1.7 19:47:38 10° SW 19:49:40 64° SSE 19:51:45 10° ENE
STARLINK-1438 1.7 19:47:42 10° SW 19:49:44 64° SSE 19:51:47 10° ENE
STARLINK-1411 1.7 19:47:48 10° SW 19:49:50 64° SSE 19:51:54 10° ENE
STARLINK-1412 1.7 19:47:48 10° SW 19:49:50 64° SSE 19:51:55 10° ENE
Cosmos 1302 Rocket 4.0 19:44:35 10° SSW 19:49:52 71° ESE 19:55:09 10° NNE
FALCON 9 DEB 3.8 19:47:39 10° SSW 19:50:43 31° SE 19:53:47 10° ENE
STARLINK-1154 4.1 19:46:37 10° WNW 19:50:44 60° NNE 19:54:50 10° E
STARLINK-60 2.9 19:49:50 10° WSW 19:53:01 87° NNW 19:56:11 10° ENE
STARLINK-1235 3.3 19:50:30 10° WNW 19:53:56 59° SSW 19:56:49 14° SE
SPOT 1/Viking Rocket 3.6 19:50:03 10° SSE 19:55:11 83° ENE 20:00:23 10° NNW
STARLINK-1197 4.0 19:51:37 10° WNW 19:55:44 62° NNE 19:59:50 10° E
Cosmos 2263 4.4 19:50:30 10° S 19:55:51 49° ESE 20:01:15 10° NE
Cosmos 1092 Rocket 4.0 19:50:21 10° S 19:56:26 70° E 20:02:35 10° NNE
Cosmos 1025 Rocket 4.5 19:53:47 12° SE 19:56:36 22° E 19:59:54 10° NE
Cosmos 1486 Rocket 4.1 19:51:22 10° NNW 19:56:42 79° ENE 20:01:30 12° SSE
SL-27 R/B 2.6 19:53:16 10° NNW 19:56:50 75° WSW 19:59:59 12° SSE
Cosmos 1842 3.5 19:53:33 10° S 19:57:18 49° E 20:01:04 10° NNE
Cosmos 1975 Rocket 3.1 19:54:27 10° S 19:58:48 62° E 20:03:09 10° NNE
COSMOS 2487 4.1 19:57:17 10° N 20:00:08 23° ENE 20:02:44 11° ESE
STARLINK-1198 4.0 19:56:36 10° WNW 20:00:44 65° NNE 20:04:51 10° ESE
Cosmos 292 Rocket 3.9 19:57:02 10° S 20:01:46 57° ESE 20:06:33 10° NNE
Cosmos 2297 Rocket 4.5 19:58:57 10° N 20:02:09 15° NNE 20:05:21 10° ENE
Cosmos 1943 Rocket 2.3 19:57:22 10° SSW 20:02:55 82° WNW 20:08:36 10° NNE
STARLINK-1212 3.1 20:00:13 10° WNW 20:03:19 56° SSW 20:05:35 17° SE
STARLINK-1105 3.1 20:00:51 10° WNW 20:03:58 55° SSW 20:06:14 17° SE
STARLINK-1247 3.2 20:01:57 10° WNW 20:05:05 54° SSW 20:07:20 17° SE
STARLINK-1227 3.2 20:02:34 10° WNW 20:05:41 54° SSW 20:07:54 17° SE
STARLINK-1199 3.9 20:01:34 10° WNW 20:05:43 67° NNE 20:09:50 10° ESE
STARLINK-1226 3.2 20:03:43 10° WNW 20:06:49 52° SSW 20:09:00 18° SE
Cosmos 1992 Rocket 4.5 20:02:21 10° S 20:07:11 41° ESE 20:12:04 10° NE
RESURS DK-1 4.3 20:06:49 12° ESE 20:07:42 12° ESE 20:09:25 10° ENE
STARLINK-1215 3.2 20:04:46 10° WNW 20:07:54 52° SSW 20:10:03 18° SE
Cosmos 1953 3.9 20:05:54 10° NNE 20:09:05 22° ENE 20:11:39 13° ESE
STARLINK-1217 3.3 20:07:03 10° WNW 20:10:10 50° SSW 20:12:14 18° SE
Cosmos 1271 Rocket 3.5 20:07:48 15° SSE 20:10:33 35° E 20:14:11 10° NNE
STARLINK-1210 3.8 20:06:33 10° WNW 20:10:42 70° NNE 20:14:50 10° ESE
STARLINK-1229 3.3 20:08:08 10° WNW 20:11:15 49° SSW 20:13:17 19° SE
Cosmos 1833 4.3 20:06:34 10° NNW 20:12:14 77° ENE 20:16:55 15° SSE
CZ-4B DEB 4.5 20:09:27 14° S 20:12:18 74° WSW 20:15:39 10° NNW
STARLINK-1270 3.3 20:09:14 10° WNW 20:12:21 48° SSW 20:14:20 19° SE
STARLINK-1189 3.4 20:11:37 10° WNW 20:14:43 46° SW 20:16:39 20° SSE
STARLINK-1219 3.8 20:11:34 10° WNW 20:15:43 74° NNE 20:19:42 11° ESE
ATLAS 2AS CENTAUR R/B 3.1 20:07:56 10° SSW 20:15:44 62° ESE 20:23:33 10° NE
STARLINK-1188 3.4 20:12:51 10° WNW 20:15:56 45° SW 20:17:49 20° SSE
SL-4 R/B 2.4 20:11:55 10° WSW 20:16:41 87° SSE 20:21:33 10° ENE
STARLINK-1379 4.4 20:15:00 10° SSW 20:18:25 27° SE 20:21:52 10° E
STARLINK-1191 3.5 20:15:27 10° WNW 20:18:31 43° SW 20:20:17 21° SSE
STARLINK-1221 3.5 20:16:41 10° WNW 20:19:44 42° SW 20:21:29 21° SSE
STARLINK-1211 3.7 20:16:32 10° WNW 20:20:42 77° NNE 20:24:28 12° ESE
STARLINK-1222 3.6 20:17:52 10° WNW 20:20:55 41° SW 20:22:37 21° SSE
Cosmos 1242 Rocket 2.6 20:18:27 13° S 20:21:37 68° E 20:25:17 10° NNE
STARLINK-1329 4.3 20:18:36 10° SSW 20:22:06 29° SE 20:25:37 10° ENE
STARLINK-1214 3.6 20:19:08 10° WNW 20:22:11 40° SW 20:23:52 22° SSE
Cosmos 1656 Rocket 3.8 20:16:49 10° S 20:22:17 56° ESE 20:27:43 10° NE
Cosmos 1707 3.6 20:20:12 18° SSE 20:22:29 34° E 20:26:02 10° NNE
Meteor 2-13 Rocket 4.5 20:16:56 10° S 20:23:04 74° E 20:29:14 10° NNE
ERS-1 Rocket 3.1 20:19:08 13° S 20:23:35 78° WSW 20:28:39 10° NNW
STARLINK-29 2.9 20:22:25 10° WSW 20:25:39 90° SSE 20:28:53 10° ENE
STARLINK-1245 3.7 20:21:30 10° WNW 20:25:39 81° NNE 20:29:14 14° ESE
Cosmos 1455 Rocket 3.1 20:21:35 10° NNW 20:25:56 76° W 20:29:27 15° S
STARLINK-1362 4.3 20:22:59 10° SSW 20:26:34 31° SE 20:30:09 10° ENE
Cosmos 1758 3.5 20:24:13 10° N 20:28:17 65° ENE 20:31:01 20° SSE
STARLINK-1233 3.6 20:26:29 10° WNW 20:30:39 85° NNE 20:34:01 15° ESE
STARLINK-1373 4.2 20:27:22 10° SSW 20:31:01 33° SE 20:34:41 10° ENE
STARLINK-1209 4.4 20:29:29 10° W 20:32:35 29° SW 20:34:08 20° S
S3M 4.3 20:26:47 10° N 20:32:52 55° ENE 20:37:28 18° SSE
Cosmos 968 Rocket 3.7 20:28:58 10° NNW 20:34:04 65° WSW 20:37:57 17° S
Cosmos 2026 Rocket 4.1 20:28:09 10° S 20:34:28 84° W 20:40:54 10° N
Meteor 1-21 4.2 20:28:56 10° S 20:34:33 83° E 20:40:11 10° NNE
STARLINK-1390 4.1 20:31:51 10° SSW 20:35:33 35° SE 20:39:16 10° ENE
STARLINK-1204 3.6 20:31:27 10° WNW 20:35:37 89° NNE 20:38:47 17° ESE
ATLAS CENTAUR R/B 1.3 20:31:21 10° SSW 20:35:42 69° SE 20:39:47 10° NE
Okean 2 4.3 20:32:08 10° SSW 20:36:09 47° WNW 20:40:13 10° N
CARTOSAT-1 4.0 20:34:06 15° S 20:37:34 57° W 20:41:50 10° NNW
Cosmos 2369 Rocket 2.7 20:32:44 10° SW 20:38:21 64° WNW 20:43:59 10° NNE
Cosmos 1867 3.8 20:35:01 10° NW 20:40:26 63° WSW 20:44:11 20° SSE
Cosmos 2227 Rocket 4.2 20:36:14 10° N 20:40:29 21° NE 20:44:42 10° E
STARLINK-1238 3.5 20:36:27 10° WNW 20:40:37 86° SSW 20:43:35 19° ESE
SJ 16-02 4.1 20:40:30 10° NE 20:41:03 10° NE 20:41:36 10° NE
STARLINK-1365 4.0 20:37:23 10° SSW 20:41:13 40° SE 20:45:04 10° ENE
STARLINK-1320 3.1 20:38:20 10° SW 20:41:19 42° SE 20:44:18 10° ENE
STARLINK-1322 3.1 20:38:41 10° SW 20:41:40 43° SE 20:44:39 10° ENE
STARLINK-1324 3.1 20:39:00 10° SW 20:41:58 43° SE 20:44:58 10° ENE
STARLINK-1294 3.1 20:39:19 10° SW 20:42:17 43° SE 20:45:16 10° ENE
STARLINK-1261 3.1 20:39:41 10° SW 20:42:40 43° SE 20:45:40 10° ENE
STARLINK-1239 4.5 20:38:41 10° WNW 20:42:44 51° N 20:46:47 10° E
STARLINK-1187 4.4 20:39:54 10° W 20:42:46 26° SW 20:43:50 22° S
STARLINK-1325 3.1 20:40:01 10° SW 20:43:01 44° SE 20:46:01 10° ENE
STARLINK-1333 3.1 20:40:24 10° SW 20:43:23 44° SSE 20:46:23 10° ENE
Cosmos 1553 Rocket 4.0 20:37:08 10° N 20:43:26 85° E 20:48:07 18° S
STARLINK-1334 3.1 20:40:41 10° SW 20:43:40 44° SE 20:46:40 10° ENE
STARLINK-1326 3.1 20:41:00 10° SW 20:43:59 45° SSE 20:46:59 10° ENE
STARLINK-1323 3.1 20:41:22 10° SW 20:44:22 45° SE 20:47:22 10° ENE
STARLINK-1349 3.1 20:41:40 10° SW 20:44:39 45° SSE 20:47:40 10° ENE
STARLINK-1336 3.1 20:42:00 10° SW 20:44:59 45° SSE 20:48:00 10° ENE
STARLINK-1331 3.1 20:42:22 10° SW 20:45:22 46° SSE 20:48:22 10° ENE
STARLINK-1201 3.5 20:41:26 10° WNW 20:45:36 81° SSW 20:48:22 20° ESE
STARLINK-1344 3.0 20:42:41 10° SW 20:45:40 46° SSE 20:48:41 10° ENE
STARLINK-1343 3.0 20:43:02 10° SW 20:46:03 46° SSE 20:49:03 10° ENE
STARLINK-1346 3.0 20:43:19 10° SW 20:46:20 47° SSE 20:49:23 10° ENE
STARLINK-1328 3.0 20:43:45 10° SW 20:46:45 47° SSE 20:49:47 10° ENE
STARLINK-1354 3.0 20:44:03 10° SW 20:47:03 47° SSE 20:50:05 10° ENE
STARLINK-1347 3.0 20:44:20 10° SW 20:47:20 47° SSE 20:50:22 10° ENE
STARLINK-1240 4.4 20:43:38 10° WNW 20:47:42 52° NNE 20:51:46 10° E
STARLINK-1357 3.0 20:44:45 10° SW 20:47:46 48° SSE 20:50:48 10° ENE
STARLINK-1335 3.0 20:45:03 10° SW 20:48:03 48° SSE 20:51:05 10° ENE
STARLINK-1327 3.0 20:45:23 10° SW 20:48:24 48° SSE 20:51:26 10° ENE
STARLINK-1340 3.0 20:45:41 10° SW 20:48:42 49° SSE 20:51:44 10° ENE
STARLINK-1356 3.0 20:46:04 10° SW 20:49:05 49° SSE 20:52:07 10° ENE
STARLINK-1345 3.0 20:46:22 10° SW 20:49:23 49° SSE 20:52:26 10° ENE
STARLINK-1355 3.0 20:46:43 10° SW 20:49:45 50° SSE 20:52:47 10° ENE
STARLINK-1321 3.0 20:47:04 10° SW 20:50:05 50° SSE 20:53:08 10° ENE
STARLINK-1358 2.9 20:47:26 10° SW 20:50:28 50° SSE 20:53:30 10° ENE
STARLINK-1206 3.5 20:46:23 10° WNW 20:50:32 77° SSW 20:53:07 22° SE
STARLINK-1332 2.9 20:47:44 10° SW 20:50:45 50° SSE 20:53:48 10° ENE
STARLINK-1348 2.9 20:48:04 10° SW 20:51:06 51° SSE 20:54:08 10° ENE
STARLINK-1330 2.9 20:48:23 10° SW 20:51:26 51° SSE 20:54:28 10° ENE
STARLINK-1363 2.9 20:48:43 10° SW 20:51:45 51° SSE 20:54:48 10° ENE
STARLINK-1337 2.9 20:49:05 10° SW 20:52:08 52° SSE 20:55:11 10° ENE
STARLINK-1338 3.7 20:48:33 10° SW 20:52:21 46° SE 20:56:10 10° ENE
STARLINK-1342 2.9 20:49:25 10° SW 20:52:27 52° SSE 20:55:30 10° ENE
STARLINK-1216 4.3 20:48:39 10° WNW 20:52:43 53° NNE 20:56:47 10° E
STARLINK-1364 2.9 20:49:44 10° SW 20:52:47 52° SSE 20:55:50 10° ENE
STARLINK-1376 2.9 20:50:05 10° SW 20:53:07 53° SSE 20:56:10 10° ENE
STARLINK-1360 2.9 20:50:25 10° SW 20:53:28 53° SSE 20:56:32 10° ENE
STARLINK-1361 2.9 20:50:45 10° SW 20:53:49 53° SSE 20:56:52 10° ENE
STARLINK-1367 2.9 20:51:02 10° SW 20:54:05 54° SSE 20:57:10 10° ENE
STARLINK-1366 2.9 20:51:25 10° SW 20:54:27 54° SSE 20:57:31 10° ENE
STARLINK-1205 3.6 20:51:22 10° WNW 20:55:31 72° SSW 20:57:54 24° SE
Cosmos 1777 Rocket 4.5 20:51:04 10° NNW 20:56:12 51° ENE 20:59:37 20° SE
STARLINK-1237 4.3 20:53:37 10° WNW 20:57:43 55° NNE 21:01:48 10° E
Cosmos 1536 Rocket 3.5 20:55:59 22° S 20:58:47 78° E 21:03:11 10° NNE
Cosmos 2084 3.8 20:56:25 20° S 20:59:13 45° SE 21:03:29 10° NE
Cosmos 1908 4.4 20:56:22 10° N 20:59:49 31° ENE 21:01:28 22° ESE
STARLINK-1218 3.6 20:56:22 10° WNW 21:00:30 68° SSW 21:02:41 26° SE
STARLINK-1371 3.6 20:56:54 10° SW 21:00:45 52° SSE 21:04:37 10° ENE
STARLINK-52 3.4 20:57:51 10° WSW 21:01:01 62° NNW 21:04:13 10° ENE
SPOT 5 4.0 20:57:53 14° SSW 21:02:08 44° W 21:07:16 10° NNW
STARLINK-1202 4.2 20:58:37 10° WNW 21:02:43 57° NNE 21:06:49 10° E
In-Cosmos 22 4.3 20:59:51 23° SSE 21:03:03 56° E 21:08:13 10° NNE
Cosmos 1544 Rocket 4.4 20:59:14 10° NNW 21:03:21 43° W 21:06:25 17° SSW
ATLAS CENTAUR R/B 3.2 21:02:19 10° NNW 21:03:42 17° NNE 21:05:27 10° ENE
CENTAUR R/B 3.8 20:57:21 10° NW 21:04:59 45° WSW 21:11:10 18° S
STARLINK-1341 3.5 21:01:08 10° SW 21:05:02 55° SSE 21:08:58 10° ENE
JB-3 4.3 21:01:16 10° NNE 21:05:25 73° ESE 21:07:37 26° S
STARLINK-1254 3.6 21:01:22 10° WNW 21:05:28 63° SSW 21:07:28 28° SE
Terra 2.4 21:02:43 19° S 21:06:00 49° W 21:10:39 10° NNW
Exosat Rocket 4.5 20:56:46 10° NNW 21:06:02 90° WSW 21:10:29 23° SSE
Thor Agena Rocket 4.0 21:01:14 10° NNE 21:06:20 46° E 21:09:05 25° SSE
USA 215 4.2 21:00:20 10° E 21:06:34 49° NNE 21:12:48 10° WNW
Cosmos 2266 Rocket 4.1 21:03:13 22° SSE 21:07:07 59° E 21:13:03 10° NNE
BREEZE-M DEB 3.3 21:04:13 10° WSW 21:07:10 89° SSE 21:16:11 10° E
STARLINK-1203 4.2 21:03:22 10° WNW 21:07:30 59° NNE 21:11:36 10° E
Cosmos 2292 Rocket 3.3 21:08:26 34° SE 21:09:12 41° E 21:12:04 10° NNE
STARLINK-1374 3.5 21:05:22 10° SW 21:09:17 59° SSE 21:13:13 10° ENE
STARLINK-1231 3.7 21:06:21 10° WNW 21:10:26 59° SSW 21:12:15 30° SE
STARLINK-1246 4.1 21:08:35 10° WNW 21:12:43 61° NNE 21:16:43 11° E
Cosmos 1726 2.1 21:09:21 10° N 21:13:06 85° W 21:14:42 33° S
STARLINK-1339 3.4 21:09:37 10° SW 21:13:35 63° SSE 21:17:33 10° ENE
ATLAS 3B R/B 2.8 21:06:52 10° NW 21:13:36 67° SW 21:18:06 23° SSE
Cosmos 1655 Rocket 4.0 21:09:11 19° S 21:13:54 87° E 21:20:15 10° N
STARLINK-1232 3.8 21:11:22 10° WNW 21:15:25 55° SW 21:17:04 32° SSE
STARLINK-1224 4.0 21:13:33 10° WNW 21:17:41 64° NNE 21:21:29 12° E
STARLINK-1377 3.4 21:13:55 10° SW 21:17:53 66° SSE 21:21:52 10° ENE
Cosmos 1674 3.2 21:18:37 33° SE 21:19:48 44° E 21:23:27 10° NNE
STARLINK-1208 3.8 21:16:21 10° WNW 21:20:23 51° SW 21:21:50 33° SSE
Cosmos 1470 4.3 21:17:24 10° NNW 21:20:45 28° W 21:23:07 15° SW
STARLINK-1444 4.3 21:19:15 10° WNW 21:21:09 27° N 21:23:05 10° NE
STARLINK-1452 4.3 21:19:54 10° WNW 21:21:47 26° N 21:23:41 10° NE
STARLINK-1353 3.4 21:18:12 10° SW 21:22:10 70° SSE 21:26:10 10° ENE
STARLINK-1392 4.3 21:20:51 10° WNW 21:22:39 26° N 21:24:30 10° NE
STARLINK-1399 4.3 21:20:51 10° WNW 21:22:41 26° N 21:24:33 10° NE
STARLINK-1225 3.9 21:18:33 10° WNW 21:22:42 66° NNE 21:26:17 13° ESE
STARLINK-1393 4.3 21:20:53 10° WNW 21:22:43 26° N 21:24:34 10° NE
STARLINK-1394 4.3 21:20:55 10° WNW 21:22:44 26° N 21:24:36 10° NE
Meteor 2-10 4.2 21:17:47 10° NNW 21:22:45 61° W 21:25:45 24° S
STARLINK-1395 4.3 21:21:00 10° WNW 21:22:47 25° N 21:24:37 10° NE
STARLINK-1397 4.3 21:20:57 10° WNW 21:22:47 26° N 21:24:39 10° NE
STARLINK-1396 4.3 21:20:58 10° WNW 21:22:47 26° N 21:24:39 10° NE
STARLINK-1414 4.3 21:20:59 10° WNW 21:22:48 26° N 21:24:39 10° NE
STARLINK-1408 4.3 21:21:02 10° WNW 21:22:51 25° N 21:24:42 10° NE
STARLINK-1404 4.3 21:21:03 10° WNW 21:22:52 26° N 21:24:44 10° NE
STARLINK-1416 4.3 21:21:04 10° WNW 21:22:53 26° N 21:24:44 10° NE
STARLINK-1415 4.3 21:21:04 10° WNW 21:22:54 26° N 21:24:46 10° NE
STARLINK-1450 4.3 21:21:05 10° WNW 21:22:55 26° N 21:24:47 10° NE
STARLINK-1406 4.3 21:21:08 10° WNW 21:22:56 25° N 21:24:47 10° NE
STARLINK-1401 4.3 21:21:07 10° WNW 21:22:57 26° N 21:24:49 10° NE
STARLINK-1417 4.3 21:21:10 10° WNW 21:23:00 26° N 21:24:53 10° NE
STARLINK-1419 4.3 21:21:12 10° WNW 21:23:01 26° N 21:24:54 10° NE
STARLINK-1402 4.3 21:21:11 10° WNW 21:23:01 26° N 21:24:54 10° NE
STARLINK-1413 4.3 21:21:11 10° WNW 21:23:01 26° N 21:24:54 10° NE
STARLINK-1422 4.3 21:21:17 10° WNW 21:23:07 26° N 21:24:59 10° NE
STARLINK-1453 4.3 21:21:18 10° WNW 21:23:07 26° N 21:25:01 10° NE
STARLINK-1398 4.3 21:21:17 10° WNW 21:23:09 26° N 21:25:03 10° NE
STARLINK-1420 4.3 21:21:20 10° WNW 21:23:10 26° N 21:25:04 10° NE
STARLINK-1440 4.3 21:21:20 10° WNW 21:23:10 26° N 21:25:04 10° NE
STARLINK-1436 (VISORSAT) 4.3 21:21:20 10° WNW 21:23:11 26° N 21:25:06 10° NE
STARLINK-1460 4.3 21:21:23 10° WNW 21:23:14 26° N 21:25:06 10° NE
STARLINK-1410 4.3 21:21:28 10° WNW 21:23:18 26° N 21:25:11 10° NE
STARLINK-1423 4.3 21:21:29 10° WNW 21:23:18 26° N 21:25:10 10° NE
STARLINK-1421 4.3 21:21:29 10° WNW 21:23:18 26° N 21:25:10 10° NE
STARLINK-1400 4.3 21:21:28 10° WNW 21:23:18 26° N 21:25:11 10° NE
STARLINK-1454 4.3 21:21:29 10° WNW 21:23:19 26° N 21:25:12 10° NE
STARLINK-1458 4.3 21:21:31 10° WNW 21:23:21 26° N 21:25:13 10° NE
STARLINK-1445 4.3 21:21:33 10° WNW 21:23:23 26° N 21:25:17 10° NE
STARLINK-1446 4.3 21:21:36 10° WNW 21:23:26 26° N 21:25:19 10° NE
STARLINK-1407 4.3 21:21:36 10° WNW 21:23:26 26° N 21:25:19 10° NE
STARLINK-1405 4.3 21:21:39 10° WNW 21:23:27 25° N 21:25:17 10° NE
STARLINK-1457 4.3 21:21:39 10° WNW 21:23:28 26° N 21:25:21 10° NE
STARLINK-1456 4.3 21:21:39 10° WNW 21:23:29 26° N 21:25:21 10° NE
STARLINK-1370 4.3 21:21:38 10° WNW 21:23:29 26° N 21:25:21 10° NE
STARLINK-1451 4.3 21:21:39 10° WNW 21:23:29 26° N 21:25:22 10° NE
STARLINK-1409 4.3 21:21:40 10° WNW 21:23:30 26° N 21:25:22 10° NE
STARLINK-1439 4.3 21:21:42 10° WNW 21:23:30 25° N 21:25:20 10° NE
STARLINK-1437 4.3 21:21:40 10° WNW 21:23:30 26° N 21:25:23 10° NE
STARLINK-1447 4.3 21:21:40 10° WNW 21:23:31 26° N 21:25:23 10° NE
STARLINK-1455 4.3 21:21:40 10° WNW 21:23:31 26° N 21:25:23 10° NE
STARLINK-1441 4.3 21:21:42 10° WNW 21:23:32 26° N 21:25:26 10° NE
STARLINK-1443 4.3 21:21:44 10° WNW 21:23:35 26° N 21:25:29 10° NE
STARLINK-1351 4.3 21:21:46 10° WNW 21:23:37 26° N 21:25:30 10° NE
STARLINK-1418 4.3 21:21:47 10° WNW 21:23:37 26° N 21:25:30 10° NE
STARLINK-1442 4.3 21:21:47 10° WNW 21:23:38 26° N 21:25:31 10° NE
STARLINK-1403 4.3 21:21:47 10° WNW 21:23:38 26° N 21:25:31 10° NE
STARLINK-1434 4.3 21:21:47 10° WNW 21:23:38 26° N 21:25:32 10° NE
STARLINK-1448 4.3 21:21:49 10° WNW 21:23:40 26° N 21:25:32 10° NE
STARLINK-1433 4.3 21:21:50 10° WNW 21:23:41 26° N 21:25:33 10° NE
STARLINK-1449 4.3 21:21:52 10° WNW 21:23:42 26° N 21:25:35 10° NE
STARLINK-1438 4.3 21:21:56 10° WNW 21:23:45 26° N 21:25:37 10° NE
STARLINK-1411 4.3 21:22:02 10° WNW 21:23:52 26° N 21:25:45 10° NE
STARLINK-1412 4.3 21:22:02 10° WNW 21:23:52 26° N 21:25:45 10° NE
OE (NEXTSAT) 4.4 21:21:10 10° W 21:24:35 52° S 21:25:23 41° SE
BREEZE-M DEB (TANK) 3.2 21:13:03 10° W 21:24:41 86° N 21:28:01 10° E
STARLINK-1271 3.9 21:21:20 10° WNW 21:25:20 48° SW 21:26:37 35° SSE
SeaSat 1 3.3 21:21:53 10° NE 21:26:19 32° ESE 21:27:48 27° SE
STARLINK-1375 3.4 21:22:30 10° SW 21:26:30 75° SSE 21:30:31 10° ENE
BREEZE-M DEB (TANK) 2.9 21:20:53 10° SW 21:27:29 38° SSE 21:30:19 10° E
FALCON 9 DEB 3.6 21:24:12 10° WSW 21:27:36 62° NNW 21:31:02 10° ENE
STARLINK-1230 3.9 21:23:31 10° WNW 21:27:40 69° NNE 21:31:02 15° ESE
Cosmos 883 Rocket 4.4 21:22:25 10° N 21:28:35 85° E 21:32:14 26° S
BREEZE-M DEB (TANK) 2.8 21:25:44 10° WNW 21:29:20 78° SSW 21:32:59 13° ESE
Cosmos 1606 Rocket 3.7 21:25:07 10° N 21:29:26 62° ENE 21:31:19 32° SSE
STARLINK-1154 4.0 21:26:18 10° WNW 21:30:16 44° SW 21:31:22 35° S
Cosmos 1340 Rocket 3.3 21:26:20 10° NNW 21:30:21 55° W 21:32:10 29° SSW
Cosmos 2058 Rocket 4.1 21:26:26 10° N 21:30:33 35° ENE 21:32:37 23° ESE
STARLINK-1350 3.4 21:26:49 10° WSW 21:30:49 79° SSE 21:34:50 10° ENE
COSMOS 2455 3.1 21:25:46 10° SW 21:31:46 72° NW 21:37:50 10° NNE
STARLINK-1243 3.8 21:28:31 10° WNW 21:32:41 73° NNE 21:35:51 17° ESE
Cosmos 1025 Rocket 4.1 21:30:39 14° SW 21:33:56 40° WNW 21:38:03 10° N
STARLINK-1352 3.4 21:31:09 10° WSW 21:35:09 83° SSE 21:39:11 10° ENE
COSMOS 2487 3.9 21:32:12 10° NW 21:35:11 27° WSW 21:36:14 23° SW
STARLINK-1197 4.1 21:31:20 10° WNW 21:35:14 41° SW 21:36:10 35° S
STARLINK-1236 3.7 21:33:29 10° WNW 21:37:38 76° NNE 21:40:36 18° ESE
NOSS 3-4 (A) 4.1 21:32:40 10° WSW 21:38:34 56° NW 21:44:56 10° NE
NOSS 3-4 (C) 4.1 21:32:45 10° WSW 21:38:39 56° NW 21:45:02 10° NE
ALOS 2 3.2 21:37:11 27° SE 21:39:13 48° ENE 21:43:28 10° N
STARLINK-1368 3.4 21:35:35 10° WSW 21:39:36 87° SSE 21:43:38 10° ENE
STARLINK-1198 4.2 21:36:20 10° WNW 21:40:12 38° SW 21:40:57 35° SSW
Aureole 3 2.8 21:38:46 10° NNW 21:41:45 59° W 21:42:17 48° SW
STARLINK-1369 3.5 21:39:58 10° WSW 21:44:00 89° NNW 21:48:02 10° ENE
RESURS DK-1 2.4 21:42:39 24° SW 21:45:07 78° WNW 21:49:17 10° NNE
STARLINK-1199 4.3 21:41:20 10° WNW 21:45:08 36° SW 21:45:43 34° SSW
ATLAS 5 CENTAUR R/B 1.4 21:40:55 10° SW 21:45:16 70° NW 21:47:27 10° NE
Cosmos 1953 3.5 21:41:57 10° NNW 21:45:34 34° W 21:47:21 23° SW
EXPRESS MD2 4.4 21:42:07 10° W 21:46:28 84° NNE 21:55:51 10° E
ERBS 3.6 21:43:45 10° NW 21:46:55 38° NNE 21:49:22 15° E
Cosmos 1626 3.0 21:46:18 30° ESE 21:47:01 33° E 21:50:25 10° NNE
CZ-4C R/B 3.3 21:46:26 22° SE 21:47:18 22° ESE 21:51:37 10° ENE
Meteor 1-24 Rocket 4.2 21:44:56 28° SSE 21:47:20 45° E 21:52:37 10° NNE
Cosmos 2297 Rocket 2.7 21:41:57 10° NNW 21:47:32 55° ENE 21:51:12 21° SE
STARLINK-1269 3.6 21:43:27 10° WNW 21:47:37 84° NNE 21:50:10 23° ESE
STARLINK-1372 3.5 21:44:21 10° WSW 21:48:22 85° NNW 21:52:25 10° ENE
STARLINK-1210 4.4 21:46:21 10° WNW 21:50:05 33° SW 21:50:30 32° SSW
Cosmos 2219 3.3 21:45:43 10° NNW 21:51:24 70° ENE 21:54:40 26° SE
Lacrosse 4 Rocket 3.0 21:47:43 10° NNW 21:51:34 30° NE 21:54:47 13° ESE
Spot 4 4.0 21:50:03 32° S 21:52:18 68° WSW 21:57:09 10° NNW
Cosmos 2228 2.9 21:48:13 10° NNW 21:52:28 78° W 21:54:03 38° S
STARLINK-1200 3.5 21:48:25 10° WNW 21:52:35 88° NNE 21:54:57 25° ESE
STARLINK-1378 3.6 21:48:47 10° WSW 21:52:49 81° NNW 21:56:52 10° ENE
Cosmos 921 Rocket 3.1 21:52:46 38° S 21:54:14 62° ESE 21:58:35 10° NNE
Cosmos 220 Rocket 4.2 21:52:57 37° S 21:54:28 59° ESE 21:58:52 10° NNE
SL-4 R/B 3.0 21:51:54 10° W 21:56:42 60° N 22:01:29 10° E
STARLINK-1379 3.6 21:53:16 10° WSW 21:57:17 78° NNW 22:01:20 10° ENE
STARLINK-1192 3.5 21:53:25 10° WNW 21:57:35 88° SSW 21:59:44 28° ESE
STARLINK-1329 3.7 21:57:00 10° WSW 22:01:02 75° NNW 22:05:05 10° ENE
STARLINK-1244 3.5 21:58:23 10° WNW 22:02:33 83° SSW 22:04:30 30° ESE
SL-4 R/B 1.9 22:03:44 39° N 22:03:44 39° N 22:05:15 10° NNW
EO 1 Del DPAF 3.8 21:59:33 10° N 22:03:14 51° WNW 22:04:56 28° SW
STARLINK-1362 3.8 22:01:31 10° WSW 22:05:33 72° NNW 22:09:35 10° ENE
Timation 2 Rocket 4.3 22:00:52 10° NW 22:06:54 52° WSW 22:09:46 29° S
ATLAS 2AS CENTAUR R/B 4.0 21:59:24 10° WSW 22:07:08 48° NW 22:14:42 10° NE
STARLINK-1138 3.5 22:03:21 10° WNW 22:07:31 79° SSW 22:09:16 33° SE
STARLINK-1373 3.8 22:06:04 10° WSW 22:10:05 69° NNW 22:14:08 10° ENE
Cosmos 1809 Rocket 4.4 22:07:49 29° S 22:11:13 85° E 22:17:27 10° N
Okean 1-7 Rocket 3.6 22:09:54 38° S 22:11:33 73° E 22:16:07 10° NNE
STARLINK-1143 3.5 22:08:21 10° WNW 22:12:30 74° SSW 22:14:04 36° SE
Helios 1A 3.3 22:10:56 33° SE 22:12:34 56° ENE 22:16:40 10° N
Cosmos 1726 Rocket 3.8 22:08:24 10° NNW 22:12:40 60° W 22:14:12 36° SSW
STARLINK-1390 3.9 22:10:36 10° WSW 22:14:38 66° NNW 22:18:40 10° ENE
Cosmos 1697 Rocket 3.9 22:12:54 23° SE 22:14:41 27° ESE 22:19:24 10° NE
ATLAS CENTAUR R/B 3.8 22:11:34 10° W 22:14:57 22° NW 22:18:11 10° NNE
Cosmos 1892 Rocket 3.5 22:14:31 38° SSW 22:16:09 84° W 22:20:32 10° N
BREEZE-M R/B 3.7 22:07:24 10° WSW 22:16:15 65° SSE 22:20:23 10° ENE
STARLINK-1320 3.9 22:14:06 10° W 22:17:08 47° NNW 22:20:10 10° ENE
STARLINK-1241 3.5 22:13:21 10° WNW 22:17:29 69° SSW 22:18:52 39° SE
STARLINK-1322 3.9 22:14:27 10° W 22:17:29 47° NNW 22:20:32 10° ENE
STARLINK-1324 3.9 22:14:46 10° W 22:17:48 47° NNW 22:20:51 10° ENE
STARLINK-1294 3.9 22:15:05 10° W 22:18:07 46° NNW 22:21:10 10° ENE
STARLINK-1261 3.9 22:15:28 10° W 22:18:30 46° NNW 22:21:32 10° ENE
STARLINK-1325 3.9 22:15:49 10° W 22:18:51 46° NNW 22:21:53 10° ENE
STARLINK-1333 3.9 22:16:11 10° W 22:19:13 46° NNW 22:22:15 10° ENE
STARLINK-1334 3.9 22:16:28 10° W 22:19:30 46° NNW 22:22:32 10° ENE
STARLINK-1326 4.0 22:16:48 10° W 22:19:49 46° NNW 22:22:51 10° ENE
STARLINK-1323 4.0 22:17:11 10° W 22:20:12 46° NNW 22:23:14 10° ENE
STARLINK-1365 4.0 22:16:25 10° W 22:20:29 63° NNW 22:24:33 10° ENE
STARLINK-1349 4.0 22:17:29 10° W 22:20:30 45° NNW 22:23:32 10° ENE
SJ 16-02 1.7 22:16:13 10° NNW 22:20:38 60° ENE 22:22:33 31° SE
STARLINK-1336 4.0 22:17:49 10° W 22:20:50 45° NNW 22:23:52 10° ENE
STARLINK-1331 4.0 22:18:11 10° W 22:21:13 45° NNW 22:24:15 10° ENE
STARLINK-1344 4.0 22:18:30 10° W 22:21:31 45° NNW 22:24:33 10° ENE
STARLINK-1343 4.0 22:18:52 10° W 22:21:54 45° NNW 22:24:55 10° ENE
STARLINK-1346 4.0 22:19:09 10° W 22:22:11 45° NNW 22:25:15 10° ENE
STARLINK-1239 3.5 22:18:21 10° WNW 22:22:27 65° SSW 22:23:39 42° SSE
STARLINK-1328 4.0 22:19:36 10° W 22:22:37 45° NNW 22:25:39 10° ENE
STARLINK-1354 4.0 22:19:53 10° W 22:22:55 45° NNW 22:25:57 10° ENE
STARLINK-1347 4.0 22:20:11 10° W 22:23:12 45° NNW 22:26:14 10° ENE
Cosmos 1437 2.5 22:23:34 71° ESE 22:23:36 71° E 22:26:37 10° NNE
STARLINK-1357 4.0 22:20:37 10° W 22:23:37 44° NNW 22:26:39 10° ENE
STARLINK-1335 4.0 22:20:54 10° W 22:23:54 44° NNW 22:26:56 10° ENE
STARLINK-1327 4.0 22:21:15 10° W 22:24:16 44° NNW 22:27:17 10° ENE
STARLINK-1340 4.0 22:21:33 10° W 22:24:34 44° NNW 22:27:35 10° ENE
STARLINK-1356 4.0 22:21:56 10° W 22:24:57 44° NNW 22:27:58 10° ENE
Nadezhda 2 Rocket 4.5 22:21:48 29° SSW 22:25:10 81° W 22:31:23 10° N
STARLINK-1345 4.1 22:22:15 10° W 22:25:16 44° NNW 22:28:17 10° ENE
Cosmos 2227 Rocket 2.2 22:19:40 10° NNW 22:25:24 87° ENE 22:28:23 30° SSE
STARLINK-1355 4.1 22:22:37 10° W 22:25:37 44° NNW 22:28:38 10° ENE
STARLINK-1321 4.1 22:22:57 10° W 22:25:58 44° NNW 22:28:59 10° ENE
STARLINK-1358 4.1 22:23:20 10° W 22:26:21 43° NNW 22:29:22 10° ENE
STARLINK-1332 4.1 22:23:38 10° W 22:26:39 43° NNW 22:29:40 10° ENE
STARLINK-1348 4.1 22:23:58 10° W 22:26:59 43° NNW 22:29:59 10° ENE
STARLINK-1330 4.1 22:24:18 10° W 22:27:19 43° NNW 22:30:19 10° ENE
STARLINK-1240 3.6 22:23:18 10° WNW 22:27:23 61° SSW 22:28:24 45° SSE
Cosmos 1763 Rocket 4.3 22:25:57 29° SE 22:27:33 36° ESE 22:32:10 10° NE
STARLINK-1363 4.1 22:24:37 10° W 22:27:38 43° NNW 22:30:39 10° ENE
STARLINK-1337 4.1 22:25:01 10° W 22:28:01 43° NNW 22:31:02 10° ENE
STARLINK-1342 4.1 22:25:20 10° W 22:28:20 43° NNW 22:31:21 10° ENE
STARLINK-1364 4.1 22:25:40 10° W 22:28:41 43° NNW 22:31:42 10° ENE
STARLINK-1376 4.1 22:26:00 10° W 22:29:01 43° NNW 22:32:01 10° ENE
STARLINK-1360 4.1 22:26:21 10° W 22:29:21 43° NNW 22:32:22 10° ENE
STARLINK-1361 4.1 22:26:42 10° W 22:29:42 42° NNW 22:32:42 10° ENE
STARLINK-1367 4.1 22:26:58 10° W 22:29:59 43° NNW 22:33:02 10° ENE
STARLINK-1366 4.1 22:27:21 10° W 22:30:21 42° NNW 22:33:21 10° ENE
STARLINK-1338 4.1 22:27:22 10° W 22:31:18 57° NNW 22:35:14 10° ENE
STARLINK-1216 3.6 22:28:18 10° WNW 22:32:22 57° SSW 22:33:11 47° SSE
Landsat 4 4.0 22:30:05 10° NNE 22:33:44 52° E 22:34:25 44° SE
Cosmos 1356 Rocket 3.4 22:32:09 10° NNW 22:36:24 88° ENE 22:37:47 43° SSE
STARLINK-1237 3.7 22:33:17 10° WNW 22:37:20 53° SW 22:37:58 47° S
Nadezhda 1 Rocket 4.1 22:31:06 10° N 22:37:21 72° E 22:40:51 28° SSE
SL-14 R/B 3.4 22:36:22 42° SW 22:37:27 65° W 22:41:18 10° N
STARLINK-1371 4.3 22:35:50 10° W 22:39:43 54° NNW 22:43:38 10° ENE
STARLINK-1202 3.8 22:38:18 10° WNW 22:42:18 49° SW 22:42:45 47° SSW
CZ-4 R/B 4.5 22:39:32 10° NNE 22:44:01 41° E 22:45:38 31° SE
STARLINK-1341 4.3 22:40:11 10° W 22:44:06 52° NNW 22:48:01 10° ENE
Meteor 2-16 Rocket 4.4 22:43:09 31° S 22:46:18 89° E 22:52:27 10° N
STARLINK-1203 3.9 22:43:06 10° WNW 22:47:05 46° SW 22:47:22 45° SSW
STARLINK-1374 4.4 22:44:29 10° W 22:48:24 51° NNW 22:52:18 10° ENE
Cosmos 1300 3.3 22:44:44 10° NNW 22:48:24 45° W 22:49:12 38° SW
USA 215 3.2 22:42:42 10° ESE 22:49:17 89° NNE 22:55:52 10° NW
Meteor 2-5 Rocket 4.4 22:46:11 22° SW 22:49:34 46° WNW 22:55:03 10° N
CZ-2D R/B 4.5 22:49:01 10° ENE 22:50:21 11° E 22:51:40 10° E
Meteor 2-10 Rocket 3.9 22:46:26 10° N 22:51:31 56° ENE 22:54:09 27° SE
STARLINK-1246 4.0 22:48:18 10° WNW 22:52:14 42° SW 22:52:19 42° SSW
STARLINK-1339 4.4 22:48:49 10° W 22:52:43 50° NNW 22:56:37 10° ENE
STARLINK 1040 4.1 22:56:00 27° ENE 22:56:00 27° ENE 22:57:21 10° ENE
Cosmos-2242 4.3 22:51:27 10° N 22:55:20 33° ENE 22:57:34 20° ESE
STARLINK-1444 4.2 22:53:28 10° NW 22:55:25 28° N 22:56:39 17° ENE
YAOGAN 11 4.1 22:54:28 41° S 22:55:50 68° WSW 23:00:08 10° NNW
STARLINK-1452 4.2 22:54:06 10° NW 22:56:03 28° N 22:57:03 19° ENE
STARLINK-1392 4.2 22:54:58 10° NW 22:56:52 28° NNE 22:57:12 26° NNE
STARLINK-1399 4.2 22:55:00 10° NW 22:56:54 28° N 22:57:22 25° NE
STARLINK-1393 4.2 22:55:02 10° NW 22:56:56 28° N 22:57:20 26° NNE
STARLINK-1394 4.2 22:55:03 10° NW 22:56:58 28° NNE 22:57:22 26° NE
STARLINK-1395 4.1 22:55:08 10° NW 22:57:00 27° NNE 22:57:08 27° NNE
STARLINK-1397 4.2 22:55:06 10° NW 22:57:01 28° NNE 22:57:30 25° NE
STARLINK-1414 4.2 22:55:07 10° NW 22:57:01 28° NNE 22:57:21 26° NNE
STARLINK-1396 4.2 22:55:07 10° NW 22:57:01 28° NNE 22:57:27 25° NE
STARLINK-1408 4.2 22:55:10 10° NW 22:57:04 28° N 22:57:23 26° NNE
STARLINK-1377 4.5 22:53:10 10° W 22:57:04 49° N 23:00:59 10° ENE
STARLINK-1404 4.2 22:55:11 10° NW 22:57:06 28° N 22:57:34 25° NE
STARLINK-1416 4.2 22:55:13 10° NW 22:57:06 28° N 22:57:28 26° NNE
STARLINK-1415 4.2 22:55:13 10° NW 22:57:07 28° N 22:57:41 24° NE
STARLINK-1450 4.2 22:55:14 10° NW 22:57:09 28° N 22:57:44 24° NE
STARLINK-1406 4.1 22:55:16 10° NW 22:57:09 27° N 22:57:25 27° NNE
STARLINK-1224 4.1 22:53:17 10° WNW 22:57:05 39° SW 22:57:05 39° SW
STARLINK-1401 4.2 22:55:16 10° NW 22:57:11 28° NNE 22:57:45 24° NE
STARLINK-1417 4.2 22:55:19 10° NW 22:57:14 28° N 22:57:49 24° NE
STARLINK-1402 4.2 22:55:21 10° NW 22:57:16 28° N 22:57:50 24° NE
STARLINK-1413 4.2 22:55:21 10° NW 22:57:16 28° N 22:57:50 24° NE
STARLINK-1419 4.2 22:55:21 10° NW 22:57:16 28° N 22:57:43 25° NE
STARLINK-1422 4.2 22:55:27 10° NW 22:57:21 28° N 22:57:54 24° NE
STARLINK-1453 4.2 22:55:27 10° NW 22:57:23 28° N 22:58:03 23° NE
STARLINK-1398 4.2 22:55:28 10° NW 22:57:24 28° N 22:58:14 21° NE
STARLINK-1420 4.2 22:55:30 10° NW 22:57:25 28° N 22:58:02 24° NE
STARLINK-1440 4.2 22:55:32 10° NW 22:57:27 28° NNE 22:58:06 23° NE
STARLINK-1436 (VISORSAT) 4.2 22:55:32 10° NW 22:57:28 28° N 22:58:18 21° NE
STARLINK-1460 4.2 22:55:33 10° NW 22:57:28 28° N 22:58:05 24° NE
STARLINK-1410 4.2 22:55:37 10° NW 22:57:32 28° N 22:58:07 24° NE
STARLINK-1423 4.2 22:55:39 10° NW 22:57:33 28° N 22:58:00 25° NE
STARLINK-1421 4.2 22:55:39 10° NW 22:57:33 28° N 22:58:00 25° NE
STARLINK-1400 4.2 22:55:38 10° NW 22:57:33 28° N 22:58:09 24° NE
STARLINK-1454 4.2 22:55:39 10° NW 22:57:34 28° N 22:58:10 24° NE
STARLINK-1458 4.2 22:55:42 10° NW 22:57:36 28° NNE 22:58:08 25° NE
STARLINK-1445 4.2 22:55:44 10° NW 22:57:39 28° NNE 22:58:19 23° NE
STARLINK-1407 4.2 22:55:46 10° NW 22:57:41 28° N 22:58:19 23° NE
STARLINK-1446 4.2 22:55:46 10° NW 22:57:41 28° N 22:58:21 23° NE
STARLINK-1405 4.1 22:55:49 10° NW 22:57:42 28° NNE 22:57:52 27° NNE
STARLINK-1370 4.1 22:55:48 10° NW 22:57:44 28° N 22:58:21 24° NE
STARLINK-1456 4.2 22:55:49 10° NW 22:57:45 28° N 22:58:16 25° NE
STARLINK-1457 4.2 22:55:49 10° NW 22:57:45 28° N 22:58:16 25° NE
STARLINK-1451 4.2 22:55:50 10° NW 22:57:45 28° N 22:58:16 25° NE
STARLINK-1439 4.1 22:55:52 10° NW 22:57:45 28° N 22:57:55 27° NNE
STARLINK-1409 4.2 22:55:50 10° NW 22:57:45 28° N 22:58:17 25° NE
STARLINK-1447 4.1 22:55:50 10° NW 22:57:47 28° NNE 22:58:25 23° NE
STARLINK-1455 4.1 22:55:51 10° NW 22:57:47 28° NNE 22:58:25 23° NE
STARLINK-1437 4.1 22:55:51 10° NW 22:57:47 28° NNE 22:58:21 24° NE
STARLINK-1441 4.1 22:55:53 10° NW 22:57:48 28° N 22:58:28 23° NE
STARLINK-1443 4.1 22:55:55 10° NW 22:57:52 28° NNE 22:58:37 22° NE
STARLINK-1351 4.1 22:55:57 10° NW 22:57:53 28° NNE 22:58:32 23° NE
STARLINK-1418 4.1 22:55:57 10° NW 22:57:53 28° NNE 22:58:31 23° NE
STARLINK-1403 4.1 22:55:58 10° NW 22:57:54 28° NNE 22:58:36 23° NE
STARLINK-1434 4.1 22:55:58 10° NW 22:57:54 28° NNE 22:58:38 22° NE
STARLINK-1442 4.1 22:55:58 10° NW 22:57:54 28° NNE 22:58:34 23° NE
STARLINK-1448 4.1 22:56:00 10° NW 22:57:56 28° NNE 22:58:35 23° NE
STARLINK-1433 4.1 22:56:01 10° NW 22:57:57 28° NNE 22:58:35 23° NE
STARLINK-1449 4.1 22:56:03 10° NW 22:57:59 28° NNE 22:58:40 23° NE
STARLINK-1438 4.1 22:56:06 10° NW 22:58:02 28° NNE 22:58:32 25° NE
STARLINK-1411 4.1 22:56:13 10° NW 22:58:09 28° NNE 22:58:44 24° NE
STARLINK-1412 4.1 22:56:13 10° NW 22:58:09 28° NNE 22:58:49 23° NE
Cosmos 1626 Rocket 3.5 22:57:33 41° SSW 22:59:02 85° WNW 23:03:26 10° N
NOSS 7 (H) 3.9 22:59:52 74° SW 23:00:06 89° E 23:03:04 10° NE
STARLINK-1225 4.3 22:58:18 10° WNW 23:01:53 36° SW 23:01:53 36° SW
ATLAS 3B R/B 4.5 22:59:39 10° WNW 23:03:08 15° WSW 23:05:21 13° SW
Cosmos 540 Rocket 4.3 23:01:19 27° SE 23:03:15 37° ESE 23:07:57 10° NE
STARLINK-42 4.4 23:04:22 25° E 23:04:22 25° E 23:06:08 10° ENE
SeaSat 1 3.3 22:59:15 10° NNE 23:03:56 45° NW 23:07:35 16° WSW
SL-08 ROCKET BODY 4.3 23:01:21 32° S 23:04:15 90° W 23:10:09 10° N
STARLINK-60 3.9 23:02:44 10° WNW 23:05:50 47° NNE 23:08:56 10° E
STARLINK-1230 4.4 23:03:18 10° WNW 23:06:38 33° SW 23:06:38 33° SW
STARLINK-41 4.4 23:08:16 25° E 23:08:16 25° E 23:09:59 10° ENE
FALCON 9 R/B 4.0 23:08:51 23° SSE 23:08:51 23° SSE 23:16:29 10° ESE
Uosat 12 SS-18 rocket 3.9 23:06:35 10° NW 23:10:54 85° SW 23:13:05 30° SE
STARLINK-1307 4.4 23:12:38 29° SE 23:12:38 29° SE 23:15:27 10° ENE
Cosmos 1980 Rocket 2.9 23:10:05 28° SSE 23:12:26 41° ESE 23:17:42 10° NE
Helios 1B rocket 2.5 23:08:36 10° NNE 23:12:45 68° ESE 23:14:04 41° S
STARLINK-1290 4.3 23:16:01 31° SE 23:16:01 31° SE 23:19:00 10° ENE
ALOS 2 4.3 23:14:35 18° WSW 23:15:49 20° W 23:19:06 10° NW
Cosmos 468 Rocket 4.0 23:14:14 32° SSW 23:16:40 78° WNW 23:21:50 10° NNE
Cosmos 1745 Rocket 4.1 23:16:47 29° SSW 23:20:05 69° WNW 23:26:14 10° N
STARLINK-1317 4.0 23:21:43 39° SSE 23:21:52 39° SE 23:25:32 10° ENE
Cosmos 1626 4.1 23:20:51 16° W 23:22:23 20° WNW 23:25:12 10° NNW
Cosmos 2369 3.6 23:20:09 31° SSW 23:22:58 81° ESE 23:28:40 10° NNE
ERBS 3.4 23:20:07 10° WNW 23:22:16 29° W 23:22:16 29° W
Meteor 1-29 3.2 23:20:36 10° NNE 23:23:55 54° E 23:24:32 45° SE
Cosmos 1455 2.0 23:20:23 10° N 23:24:08 87° W 23:25:11 46° S
Cosmos 1937 Rocket 3.6 23:19:26 10° NNW 23:24:40 64° WSW 23:27:02 32° S
Cosmos 1328 4.4 23:24:02 33° SSE 23:25:24 48° E 23:29:15 10° NNE
Cosmos 1812 Rocket 3.8 23:21:13 10° NNW 23:25:35 55° W 23:27:04 36° SSW
USA 229 DEB 4.5 23:19:32 10° NW 23:26:37 58° NE 23:34:04 10° ESE
USA 229 4.5 23:19:39 10° NW 23:26:43 58° NE 23:34:10 10° ESE
STARLINK-1274 3.8 23:27:24 38° SE 23:27:24 38° SE 23:30:36 10° ENE
Cosmos 2263 Rocket 3.2 23:22:07 10° NNW 23:27:30 44° NE 23:32:49 10° SE
NOSS 3-1 (C) 4.4 23:20:19 10° NW 23:27:32 64° NE 23:35:56 10° SE
STARLINK-43 3.3 23:26:08 30° WSW 23:27:52 82° NNW 23:31:34 10° ENE
STARLINK-55 2.9 23:28:11 62° SSE 23:28:14 63° SSE 23:31:25 10° ENE
Alouette 2 Rocket 3.4 23:23:58 10° NNW 23:28:53 89° ENE 23:30:22 37° SSE
STARLINK-1291 3.8 23:30:03 41° SSE 23:30:14 42° SE 23:33:47 10° ENE
Lacrosse 4 Rocket 2.0 23:26:21 10° NW 23:30:21 38° WSW 23:31:03 35° SW
Cosmos 2297 Rocket 3.3 23:26:33 10° NW 23:31:15 27° WSW 23:32:59 23° SW
Cosmos 1656 4.3 23:27:54 20° SW 23:31:43 51° NW 23:37:10 10° NNE
Cosmos 1703 3.4 23:30:32 38° SSE 23:31:50 63° E 23:35:44 10° NNE
Cosmos 1825 Rocket 3.6 23:31:32 35° SSE 23:33:15 68° E 23:37:35 10° NNE
Cosmos 1898 Rocket 4.2 23:28:21 10° NW 23:33:19 40° WSW 23:35:13 29° SSW
STARLINK-1264 3.7 23:33:14 43° SSE 23:33:31 44° SE 23:37:06 10° ENE
CZ-4C R/B 2.3 23:31:35 22° SW 23:35:02 70° NW 23:41:13 10° NE
SL-4 R/B 2.4 23:31:54 10° WNW 23:36:47 82° NNE 23:41:33 10° ESE
STARLINK-1267 3.6 23:36:26 44° SSE 23:36:52 46° SE 23:40:28 10° ENE
Cosmos 1602 Rocket 4.2 23:35:23 29° SW 23:37:06 45° WNW 23:41:17 10° N
Cosmos 372 Rocket 4.0 23:32:15 10° NNW 23:37:26 80° ENE 23:40:52 22° SSE
STARLINK-29 4.0 23:35:27 10° WNW 23:38:34 46° NNE 23:41:40 10° E
Cosmos 2360 4.2 23:35:46 30° SSW 23:38:44 82° ESE 23:44:29 10° NNE
STARLINK-28 2.8 23:39:11 57° SW 23:39:45 80° SSE 23:42:57 10° ENE
PSLV R/B 3.8 23:37:37 10° N 23:42:00 61° WNW 23:43:52 32° SW
STARLINK-1207 3.5 23:42:54 44° S 23:43:35 52° SSE 23:47:15 10° ENE
ATLAS CENTAUR R/B 3.6 23:43:10 10° W 23:43:35 13° W 23:43:35 13° W
Cosmos 2082 4.3 23:40:42 10° NW 23:45:56 40° WSW 23:48:10 28° SSW
STARLINK-1266 3.5 23:46:10 44° SSW 23:46:58 55° SSE 23:50:38 10° ENE
Cosmos 2150 Rocket 4.1 23:44:20 10° NNW 23:49:31 77° ENE 23:53:28 17° SSE
STARLINK-33 2.7 23:49:37 52° SW 23:50:16 85° SSE 23:53:24 10° ENE
STARLINK-1284 3.4 23:49:24 42° SSW 23:50:21 58° SSE 23:54:03 10° ENE
Cosmos 2322 Rocket 3.9 23:47:53 13° SE 23:51:23 22° E 23:55:36 10° NE
Cosmos 1814 Rocket 4.0 23:49:00 29° SSW 23:51:46 85° ESE 23:57:06 10° NNE
Spot 1 4.4 23:49:24 26° SSE 23:52:16 85° WSW 23:57:25 10° NNW
STARLINK-26 3.0 23:51:18 36° WSW 23:52:34 89° SE 23:56:01 10° ENE
STARLINK-1258 3.4 23:52:43 41° SSW 23:53:46 61° SSE 23:57:28 10° ENE
